sat.trackr.live / text

‹ back to catalog

GLOBALSTAR M075

NORAD 37192 · 2010-054E

PAYLOAD ACTIVE UNKNOWN

§ Identity

Operator
Country
GLOB
Launch date
2010-10-19
Launch site
TYMSC
Launch vehicle
Mass (kg)
RCS (m²)
4.74

Purposes: comms

External: N2YO · Heavens-Above · Gunter

§ Orbital elements

Epoch: 2026-05-25T05:30:05.998176Z

Period
114.08 min
Inclination
51.9936°
Eccentricity
0.0000409
Mean motion
12.62266993 rev/d
Perigee alt
1,413.3 km
Apogee alt
1,413.9 km
Semi-major
7,791.7 km
B*
2.5739e-5
RAAN
220.0954°
Arg perigee
144.0901°
Mean anomaly
233.4493°
Rev number
71,904

§ Raw data

GLOBALSTAR M0751 37192U 10054E   26145.22923609 -.00000099  00000+0  25739-4 0  99912 37192  51.9936 220.0954 0000409 144.0901 233.4493 12.62266993719046

JSON: /api/v1/satellites/37192 · /tle

For live sub-satellite position, see the globe view (requires WebGL).

§ Visibility from observer

Set your observer location to see the next 7 days of passes ≥ 10°. The values pass through the URL so the page stays shareable.

No JS? Fill the form by hand. The geolocation button needs JavaScript.